Regional Weather Roundup
Issued by NWS

Home | Current Version | Previous Version | Graphics & Text | Print | Product List | Glossary On
Versions: 1 2 3 4 5 6 7 8 9 10 11 12 13 14 15 16 17 18 19 20 21 22 23 24 25 26 27 28 29 30 31 32 33 34 35 36 37 38 39 40 41 42 43 44 45 46 47 48 49 50
050
ASUS43 KDTX 231510
RWRMI
MICHIGAN HOURLY REGIONAL WEATHER ROUNDUP
NATIONAL WEATHER SERVICE DETROIT/PONTIAC MI
1000 AM EST THU NOV 23 2017

NOTE: "FAIR" INDICATES FEW OR NO CLOUDS BELOW 12,000 FEET WITH NO
SIGNIFICANT WEATHER AND/OR OBSTRUCTION TO VISIBILITY.

MIZ047>049-052>055-059>063-066>070-074>076-081>083-231600-
SOUTHEAST LOWER MICHIGAN

CITY           SKY/WX    TMP DP  RH WIND       PRES   REMARKS
ADRIAN         CLOUDY    30  25  81 SW10      30.10F WCI  21
ALMA           CLOUDY    32  25  74 S8        30.03F WCI  25
ANN ARBOR      CLOUDY    30  25  81 S7        30.07F WCI  23
BAD AXE        CLOUDY    32  23  70 SW8       30.02F WCI  25
CARO           CLOUDY    32  23  69 S8        30.02F WCI  25
DETROIT CITY   CLOUDY    32  22  66 SW13      30.09F WCI  22
DETROIT        CLOUDY    32  25  75 SW9       30.10F WCI  24
FLINT          CLOUDY    31  20  63 SW8       30.05F WCI  23
GROSSE ILE     CLOUDY    33  25  71 SW8       30.10F WCI  26
HILLSDALE      CLOUDY    32  23  69 SW9       30.05F WCI  24
HOWELL         CLOUDY    31  22  69 S7        30.05S WCI  24

CITY           SKY/WX    TMP DP  RH WIND       PRES   REMARKS
JACKSON        CLOUDY    32  21  64 S9        30.06F WCI  24
LAMBERTVILLE   CLOUDY    34  26  71 SW5       30.11F WCI  30
LANSING        CLOUDY    32  21  64 S10       30.05F WCI  24
LAPEER         CLOUDY    32  22  67 SW8       30.04F WCI  25
MASON          CLOUDY    33  21  63 S7        30.06S WCI  26
MONROE         CLOUDY    33  25  73 SW9       30.10F WCI  25
MT. CLEMENS    CLOUDY    33  24  71 SW12      30.06F WCI  24
PONTIAC        CLOUDY    30  22  72 S6        30.05F WCI  24
PORT HOPE        N/A     33  23  66 SW9       30.00F WCI  25
PORT HURON     CLOUDY    32  21  64 SW6       30.07F WCI  26
TRI CITIES     CLOUDY    33  24  69 SW12      30.03F WCI  24
MIDLAND        CLOUDY    33  24  69 S10       30.01F WCI  25
TROY           CLOUDY    33  23  68 SW9       30.09F WCI  25
SAGINAW HB     CLOUDY    32  25  74 SW13      30.02F WCI  22
$$
MIZ043>046-050>051-056>058-064>065-071>073-077>080-231600-
SOUTHWEST LOWER MICHIGAN

CITY           SKY/WX    TMP DP  RH WIND       PRES   REMARKS
BATTLE CREEK   CLOUDY    33  22  63 SW10      30.05F WCI  25
BENTON HARBOR  CLOUDY    34  21  59 S7        30.04F WCI  28
BIG RAPIDS     CLOUDY    32  25  74 S5        29.97F WCI  28
COLDWATER      CLOUDY    32  21  63 SW9       30.06F WCI  25
FREMONT        CLOUDY    37  27  65 SW5       29.99F WCI  34
HOLLAND        CLOUDY    36  25  64 S13       30.03F WCI  27
GRAND RAPIDS   CLOUDY    34  24  67 S13       30.03S WCI  25
IONIA          CLOUDY    33  22  64 S8        30.03S WCI  26
KALAMAZOO      CLOUDY    33  19  56 SW8       30.06F WCI  26
LUDINGTON      CLOUDY    38  26  61 SW13G18   29.95F WCI  30
MARSHALL       CLOUDY    32  21  65 SW6       30.05F WCI  26
MOUNT PLEASANT CLOUDY    33  24  67 S8        30.00F WCI  27
MUSKEGON       CLOUDY    41  24  51 SW16      30.00F
SOUTH HAVEN    CLOUDY    34  22  59 S7        30.04F WCI  28
$$
MIZ016>042-231600-
NORTHERN LOWER MICHIGAN

CITY           SKY/WX    TMP DP  RH WIND       PRES   REMARKS
ALPENA         CLOUDY    31  27  85 SW10      29.94F WCI  22
BEAVER ISLAND  CLOUDY    35  28  77 SW13G22   29.89F WCI  26
BELLAIRE       CLOUDY    32  31  96 S6        29.93F WCI  26
CADILLAC       CLOUDY    32  24  74 SW8       29.92F WCI  24
CHARLEVOIX     CLOUDY    35  29  79 SW9       29.94F WCI  27
FRANKFORT      CLOUDY    39  26  57 SW9       29.94F WCI  33
GAYLORD        CLOUDY    29  25  85 SW12      29.89F WCI  19
GRAYLING       CLOUDY    30  26  83 SW5       29.93F WCI  25
HARBOR SPRINGS CLOUDY    33  32  94 SW13G22   29.89F WCI  24
HOUGHTON LAKE  CLOUDY    30  24  78 SW8       29.95F WCI  22
MANISTEE       PTSUNNY   38  25  59 SW10G16   29.94F WCI  31
OSCODA         CLOUDY    31  26  81 SW10      29.97F WCI  22
PELLSTON       CLOUDY    34  31  88 W7        29.90F WCI  28
ROGERS CITY    CLOUDY    32  27  81 SW8       29.92F WCI  25
TRAVERSE CITY  CLOUDY    34  26  72 S7        29.92F WCI  28
$$
MIZ007>008-015-231600-
EASTERN UPPER MICHIGAN

CITY           SKY/WX    TMP DP  RH WIND       PRES   REMARKS
KINROSS        CLOUDY    28  21  74 W8        29.87F WCI  20
MACKINAC ISLAN CLOUDY    35  29  80 W12G17    29.87F WCI  26
NEWBERRY       CLOUDY    27  22  83 SW7       29.87S WCI  19
S. S. MARIE    CLOUDY    28  21  75 SW8       29.87S WCI  20
MUNISING         N/A     29  21  72 VRB6      29.88F WCI  23
$$
MIZ004>006-011>014-085-231600-
CENTRAL UPPER MICHIGAN

CITY           SKY/WX    TMP DP  RH WIND       PRES   REMARKS
MANISTIQUE     MOSUNNY   30  16  55 W8        29.89S WCI  22
ESCANABA       CLOUDY    30  21  69 W10       29.91F WCI  21
MENOMINEE      CLOUDY    31  22  69 SW7       29.93F WCI  24
SAWYER-GWINN   SUNNY     25  21  86 SW8       29.86F WCI  16
$$
MIZ001>003-009>011-084-231600-
WESTERN UPPER MICHIGAN

CITY           SKY/WX    TMP DP  RH WIND       PRES   REMARKS
IRON MOUNTAIN  SUNNY     29  18  63 VRB5      29.87R WCI  24
HOUGHTON       CLOUDY    29  23  78 SW9       29.82F WCI  20
COPPER HARBOR    N/A     33  24  69 NW13G22   29.83R WCI  24
IRONWOOD       SUNNY     26  19  74 W12       29.90R WCI  16
$$

ABBREVIATIONS USED IN REMARKS
   TC - TEMPERATURE IN CELSIUS
  WCI - WIND CHILL INDEX
   HX - HEAT INDEX
  VSB - VISIBILITY





USA.gov is the U.S. government's official web portal to all federal, state and local government web resources and services.